INTELSAT 33E DEB, 64404

Orbit data source: Space-Track

INTELSAT 33E DEB, 64404 is space debris in GEO originally from a launch on Wed, 24 Aug 2016 UTC launched from the French Guiana (FRGUI). Debris objects in space refer to the collection of defunct objects orbiting the Earth. Examples of debris include non-operational satellites, rocket bodies, and fragments generated from explosions, collisions, or faulty payload assembly.

Not visible in the next 10 days
Identifier
64404, 2016-053AJ
Orbit
GEO
Last TLE update
1 day ago
Origin
Flag of UnknownINTELU (Unknown / ITSO)
Manufacturer
Boeing/ES
Mission
Spacecraft
Bus & Motor
Unknown
Mass
Unknown
Launch date (UTC)
2016-08-24 (9 years ago)
Launch vehicle
Unknown
Launch site
French Guiana (FRGUI)
Object type
Payload
Rocket body
Debris
Shape & HBR
Unknown
Radar Cross Section
RCS unknown

Expand to show TLE details & history

TLE from 1 day ago
0 INTELSAT 33E DEB
1 64404U 16053AJ  25181.08045105  .00000056  00000-0  00000-0 0  9994
2 64404   0.6839  35.3759 0115155  50.1165 275.8118  0.99865118  2397
Epoch: 2025-06-30T01:55Z
TLE epoch observation values (Epoch: 2025-06-30T01:55:50.97Z)
Latitude
-0.4042°
Longitude
52.64433°
Altitude
35,857.486 km
Speed
3.074 km/s
True Right ascension
00h 00m 00s
True Declination
0° 24' 14"
Sunlit
Object was in daylight at epoch
Visualization orbit readout
Latitude
0.66039°
Longitude
157.17351°
Altitude
35,437.452 km
Speed
3.104 km/s
Apparent Right ascension
07h 07m 20s
Apparent Declination
-4° 25' 31"
Sunlit
Object is in daylight
Visualization observer readout
Local Sidereal Time
20:27:39
Azimuth
32.285° NE
Elevation
-50.152°
Doppler factor
1
Orbital elements
Apogee altitude
36,388.93 km
Perigee altitude
35,415.175 km
Semi-major axis
42,280.19 km
Eccentricity
0.01152
Inclination
0.6839°
RAAN
35.3759°
Arg. of periapsis
50.1165°
True anomaly
Unknown
Mean anomaly
275.8118°
Eccentric anomaly
Unknown
Mean motion
0.24965 °/min
Orbital period
1,442 mins
BSTAR
0
Loading historical data...
64404 neighbors
Loading maneuver chart data...
Loading SW <> Apogee altitude chart data...
Loading historical data...
Loading historical data...
Loading historical data...
Loading historical data...
Loading historical data...
Loading historical data...
Loading historical data...

INTELSAT 33E DEB Visibility

Observer location: undefined°, undefined°

INTELSAT 33E DEB is likely not visible in the next few days
Span
Click to sort rows by Start time (UTC) header in descending order
Start Az.
Max El. time (UTC)
Max El. Az.
Max El.
End time (UTC)
End Az.
|